Flag for U.S.A. Weather past 2 weeks in Memphis, Tennessee, U.S.A.

Now
49 °F

Partly sunny.


Feels Like: 45 °F
Forecast: 36 / 49 °F
Wind: 10 mph from Northwest

Location: Memphis International Airport

Current Time: Mar 27, 2015 at 5:17:01 PM

Latest Report: Mar 27, 2015 at 3:54 PM


Visibility: 10 mi

Pressure: 30.10 "Hg

Humidity: 61%

Dew point: 36 °F

Location of MemphisLocation

Historic Weather in Memphis — Graph

°F

Memphis temperature yesterday

Maximum temperature yesterday: 68 °F (at 12:54 AM)
Minimum temperature yesterday: 43 °F (at 10:54 PM)
Average temperature yesterday: 55 °F

Past Weeks' High & Low Weather Summary

 TemperatureHumidityPressure
High78 °F (Mar 24, 3:54 PM)97% (Mar 14, 7:54 AM)30.32 "Hg (Mar 14, 7:54 AM)
Low36 °F (Mar 27, 4:54 AM)24% (Mar 15, 3:54 PM)29.85 "Hg (Mar 26, 3:54 AM)
Average58 °F72%30.07 "Hg
* Reported Mar 12 3:54 PM — Mar 27 3:54 PM, Memphis, Weather by CustomWeather, © 2015

Note: Actual official high and low records may vary slightly from our data, if they occured in-between our weather recording intervals... More about our weather records

Advertising

Memphis weather history for previous 24 hours

 ConditionsComfort  
Time TempWeatherWind HumidityBarometerVisibility
3:54 PM
Fri, Mar 27
49 °FPartly sunny.10 mph61%30.10 "Hg10 mi
2:54 PM46 °FLight rain. Cloudy.12 mph77%30.10 "Hg10 mi
1:54 PM47 °FLight rain. Mostly cloudy.14 mph69%30.11 "Hg10 mi
12:54 PM46 °FLight rain. Mostly cloudy.12 mph71%30.11 "Hg10 mi
11:54 AM48 °FCloudy.13 mph68%30.10 "Hg10 mi
10:54 AM47 °FLight rain. Overcast.12 mph66%30.10 "Hg10 mi
9:54 AM47 °FMore clouds than sun.7 mph69%30.09 "Hg10 mi
8:54 AM45 °FPartly sunny.5 mph76%30.08 "Hg10 mi
7:54 AM41 °FPartly sunny.3 mph82%30.07 "Hg9 mi
6:54 AM39 °FPartly sunny.No wind86%30.06 "Hg9 mi
5:54 AM38 °FPassing clouds.No wind86%30.04 "Hg9 mi
4:54 AM36 °FClear.3 mph89%30.04 "Hg10 mi
3:54 AM38 °FClear.3 mph86%30.03 "Hg10 mi
2:54 AM38 °FClear.No wind83%30.02 "Hg10 mi
1:54 AM39 °FClear.5 mph82%30.03 "Hg10 mi
12:54 AM41 °FClear.3 mph76%30.05 "Hg10 mi
11:54 PM
Thu, Mar 26
43 °FClear.5 mph74%30.06 "Hg10 mi
10:54 PM43 °FClear.7 mph74%30.06 "Hg10 mi
9:54 PM44 °FClear.8 mph73%30.06 "Hg10 mi
8:54 PM45 °FPassing clouds.10 mph76%30.04 "Hg10 mi
7:54 PM46 °FPartly cloudy.9 mph73%30.02 "Hg10 mi
6:54 PM48 °FPartly sunny.9 mph74%30.00 "Hg10 mi
5:54 PM48 °FOvercast.15 mph80%29.98 "Hg10 mi
Weather by CustomWeather, © 2015

See weather overviewHow to use our weather pages